Weather History for KTTN - September, 2013

Change the Weather History Date:

Saturday, September 7, 2013

  Actual Average Record
Temperature  
Mean Temperature 63 °F 70 °F  
Max Temperature 78 °F 79 °F 94 °F (1912)
Min Temperature 48 °F 60 °F 41 °F (1984)
Degree Days  
Heating Degree Days 2 0  
Month to date heating degree days 6 0  
Since 1 July heating degree days 6 3  
Cooling Degree Days 0 5  
Month to date cooling degree days 42 40  
Year to date cooling degree days 992 896  
Growing Degree Days 13 (Base 50)    
Moisture  
Dew Point 49 °F    
Average Humidity 63    
Maximum Humidity 93    
Minimum Humidity 33    
Precipitation  
Precipitation T in 0.11 in 2.14 in (1929)
Month to date precipitation 0.18 0.83  
Year to date precipitation 32.53 31.81  
Sea Level Pressure  
Sea Level Pressure 30.03 in    
Wind  
Wind Speed 3 mph (WNW)    
Max Wind Speed 12 mph    
Max Gust Speed 22 mph    
Visibility 10 miles    
Events      
T = Trace of Precipitation, MM = Missing Value Source: NWS Daily Summary

Daily Weather History Graph

Daily Weather History Graph

Search for Another Location

Airport or City:

Trip Planner

Search our weather history database for the weather conditions in past years. The results will help you decide how hot, cold, wet, or windy it might be!

Date:

Astronomy

Sep. 07, 2013 Rise Set
Actual Time 6:32 AM EDT 7:20 PM EDT
Civil Twilight 6:05 AM EDT 7:48 PM EDT
Nautical Twilight 5:32 AM EDT 8:21 PM EDT
Astronomical Twilight 4:58 AM EDT 8:54 PM EDT
Moon 8:44 AM EDT (9/7) 8:17 PM EDT (9/7)
Length of Visible Light 13h 43m
Length of Day
12h 48m
Waxing Crescent, 5% of the Moon is Illuminated
Sep 7
Waxing Crescent
Sep 12
First Quarter
Sep 19
Full
Sep 26
Last Quarter
Oct 4
New

Hourly Weather History & Observations

Time (EDT) Temp. Dew Point Humidity Pressure Visibility Wind Dir Wind Speed Gust Speed Precip Events Conditions
12:53 AM 51.1 °F 46.9 °F 86% 30.13 in 10.0 mi NW 5.8 mph - N/A   Clear
1:53 AM 52.0 °F 48.0 °F 86% 30.13 in 10.0 mi NW 5.8 mph - N/A   Clear
2:53 AM 50.0 °F 46.0 °F 86% 30.13 in 10.0 mi Calm Calm - N/A   Clear
3:53 AM 50.0 °F 46.0 °F 86% 30.12 in 10.0 mi NNW 4.6 mph - N/A   Clear
4:53 AM 50.0 °F 46.0 °F 86% 30.12 in 10.0 mi Variable 3.5 mph - N/A   Clear
5:53 AM 48.0 °F 45.0 °F 89% 30.11 in 10.0 mi Calm Calm - N/A   Clear
6:53 AM 48.9 °F 46.0 °F 90% 30.11 in 10.0 mi NW 3.5 mph - N/A   Clear
7:53 AM 54.0 °F 48.9 °F 83% 30.10 in 10.0 mi Calm Calm - N/A   Clear
8:53 AM 61.0 °F 50.0 °F 67% 30.09 in 10.0 mi Calm Calm - N/A   Clear
9:53 AM 64.9 °F 50.0 °F 58% 30.09 in 10.0 mi WSW 3.5 mph - N/A   Clear
10:53 AM 70.0 °F 46.9 °F 44% 30.09 in 10.0 mi WNW 5.8 mph - N/A   Clear
11:53 AM 72.0 °F 46.9 °F 41% 30.08 in 10.0 mi West 9.2 mph - N/A   Clear
12:53 PM 73.9 °F 46.0 °F 37% 30.04 in 10.0 mi NW 10.4 mph 18.4 mph N/A   Clear
1:53 PM 73.9 °F 46.0 °F 37% 30.01 in 10.0 mi West 5.8 mph - N/A   Clear
2:53 PM 75.9 °F 48.0 °F 37% 29.97 in 10.0 mi Variable 6.9 mph - N/A   Clear
3:53 PM 77.0 °F 46.9 °F 34% 29.96 in 10.0 mi WSW 6.9 mph - N/A   Clear
4:53 PM 78.1 °F 48.0 °F 35% 29.95 in 10.0 mi NW 8.1 mph - N/A   Clear
5:53 PM 75.9 °F 48.9 °F 38% 29.93 in 10.0 mi West 3.5 mph - N/A   Clear
6:53 PM 73.9 °F 50.0 °F 43% 29.93 in 10.0 mi WSW 3.5 mph - N/A   Clear
7:53 PM 70.0 °F 50.0 °F 49% 29.93 in 10.0 mi Calm Calm - N/A   Clear
8:53 PM 66.9 °F 51.1 °F 57% 29.93 in 10.0 mi Calm Calm - N/A   Clear
9:53 PM 66.0 °F 54.0 °F 65% 29.92 in 10.0 mi Calm Calm - N/A   Clear
10:53 PM 64.0 °F 55.9 °F 75% 29.92 in 10.0 mi Calm Calm - N/A   Clear
11:53 PM 66.0 °F 55.9 °F 70% 29.91 in 10.0 mi Calm Calm - N/A   Clear